Tracking 18980 objects as of 19-Feb-2018
HD Live streaming from Space Station
objects crossing your sky now

FENGYUN 1C DEB

Track FENGYUN 1C DEB now!
10-day predictions


NORAD ID: 31883
Int'l Code: 1999-025CKJ
Perigee: 610.8 km
Apogee: 831.1 km
Inclination: 99.1 °
Period: 99.1 minutes
Semi major axis: 7091 km
RCS: 0.0134 m2 (small)
Launch date: May 10, 1999
Source: People's Republic of China (PRC)
Launch site: Taiyaun Space Center, China (TSC)

Note: This is SATELLITE DEBRIS
aabbcc
Your satellite tracking list
Your tracking list is empty




NASA's NSSDC Master Catalog

Two Line Element Set (TLE):
1 31883U 99025CKJ 18049.21392631  .00000206  00000-0  54539-4 0  9995
2 31883  99.0944  38.0760 0155292  72.7642 289.0481 14.53637716564657
Source of the keplerian elements: AFSPC